User: anonymous   Login
Location: Rumah Dana
(3.1167°N, 113.0167°E)
Time: 01:47:46
(UTC+00:00)
Language:

CARTOSAT-1 - Orbit

View from above orbital plane
View from above orbital plane
View from above satellite
View from above satellite

Ground track
Ground track

The orbit is defined by the following mean orbital elements,

1 28649U          26073.58144948 +.00000000 +00000-0 +18730-3 0 00005
2 28649  97.5411 100.9106 0002154  63.1911 296.9527 14.90785481    05
Epoch (UTC): 14 March 2026 13:57:17
Eccentricity: 0.0002154
inclination: 97.5411°
perigee height: 594 km
apogee height: 597 km
right ascension of ascending node: 100.9106°
argument of perigee: 63.1911°
revolutions per day: 14.90785481
mean anomaly at epoch: 296.9527°

The dashed part of the orbit path shows where the satellite is in the earth's shadow,  

DLR